CW0003 Weather Reports


Display with metric or nautical units.
time (UTC)temp
F
wind
direction
speed
MPH
gust
MPH
rain 1hr
in
rain 24hr
in
rain mn
in
humidity
%
barometer
mb
20170817015215 62 328 0.0 0.0 0.00 0.00 0.00 88 1014.1
20170817013713 62 328 0.0 0.0 0.00 0.00 0.00 87 1014.2
20170817012214 63 328 0.0 0.0 0.00 0.00 0.00 86 1014.1
20170817010710 64 328 0.0 0.0 0.00 0.00 0.00 84 1014.1
20170817005201 64 328 0.0 0.0 0.00 0.00 0.00 81 1013.8
20170817003659 66 328 0.0 0.0 0.00 0.00 0.00 79 1013.5
20170817002155 67 328 0.0 0.0 0.00 0.00 0.00 77 1013.4
20170817000700 68 328 0.0 0.0 0.00 0.00 0.00 74 1013.2
20170816235154 70 328 0.0 0.0 0.00 0.00 0.00 75 1013.0
20170816233647 71 328 0.0 0.0 0.00 0.00 0.00 65 1012.8
20170816232148 72 326 0.0 0.0 0.00 0.00 0.00 63 1012.7
20170816230644 73 347 0.0 0.0 0.00 0.00 0.00 64 1012.2
20170816225139 74 323 0.0 0.0 0.00 0.00 0.00 62 1012.1
20170816223635 74 329 0.0 0.0 0.00 0.00 0.00 60 1011.9
20170816222128 75 350 0.0 0.0 0.00 0.00 0.00 58 1011.8
20170816220624 76 340 0.0 0.0 0.00 0.00 0.00 63 1011.7
20170816215127 77 312 0.0 0.0 0.00 0.00 0.00 59 1011.5
20170816213620 78 38 0.0 0.0 0.00 0.00 0.00 66 1011.5
20170816212118 78 5 0.0 0.0 0.00 0.00 0.00 59 1011.5
20170816210617 79 342 0.0 0.0 0.00 0.00 0.00 59 1011.6
20170816205113 81 336 0.0 0.0 0.00 0.00 0.00 56 1011.3
20170816203611 82 5 0.0 0.0 0.00 0.00 0.00 67 1011.4
20170816202126 82 339 0.0 0.0 0.00 0.00 0.00 66 1011.4
20170816200604 82 351 0.0 0.0 0.00 0.00 0.00 71 1011.4
20170816195103 81 292 0.0 0.0 0.00 0.00 0.00 63 1011.3
20170816193604 81 307 0.0 0.0 0.00 0.00 0.00 75 1011.3
20170816192052 80 323 0.0 0.0 0.00 0.00 0.00 66 1011.4
20170816190554 80 5 0.0 0.0 0.00 0.00 0.00 64 1011.4
20170816185053 80 322 0.0 0.0 0.00 0.00 0.00 79 1011.7
20170816183553 79 331 0.0 0.0 0.00 0.00 0.00 72 1011.9
20170816182047 80 11 0.0 0.0 0.00 0.00 0.00 71 1011.9
20170816180544 80 341 0.0 0.0 0.00 0.00 0.00 70 1012.2
20170816175038 81 30 0.0 0.0 0.00 0.00 0.00 73 1012.3
20170816173537 81 14 0.0 0.0 0.00 0.00 0.00 72 1012.3
20170816172034 81 331 0.0 0.0 0.00 0.00 0.00 77 1012.3
20170816170530 80 14 0.0 0.0 0.00 0.00 0.00 75 1012.2
20170816165030 81 321 0.0 0.0 0.00 0.00 0.00 70 1012.2
20170816163526 81 321 0.0 0.0 0.00 0.00 0.00 74 1012.2
20170816162025 81 288 0.0 0.0 0.00 0.00 0.00 70 1012.0
20170816160532 81 355 0.0 0.0 0.00 0.00 0.00 67 1012.0
20170816155020 80 30 0.0 0.0 0.00 0.00 0.00 72 1011.8
20170816153521 79 339 0.0 0.0 0.00 0.00 0.00 72 1011.9
20170816152011 79 9 0.0 0.0 0.00 0.00 0.00 74 1012.0
20170816150516 79 323 0.0 0.0 0.00 0.00 0.00 74 1011.9
20170816145009 79 11 0.0 0.0 0.00 0.00 0.00 81 1012.0
20170816143502 78 29 0.0 0.0 0.00 0.00 0.00 76 1011.9
20170816141955 77 35 0.0 0.0 0.00 0.00 0.00 78 1012.0
20170816140456 76 295 0.0 0.0 0.00 0.00 0.00 77 1012.1
20170816134950 76 360 0.0 0.0 0.00 0.00 0.00 80 1012.1
20170816133543 75 355 0.0 0.0 0.00 0.00 0.00 81 1012.0
20170816132038 75 320 0.0 0.0 0.00 0.00 0.00 87 1012.1
20170816130533 75 355 0.0 0.0 0.00 0.00 0.00 90 1011.9
20170816125030 73 279 0.0 0.0 0.00 0.00 0.00 87 1011.7
20170816123523 72 288 0.0 0.0 0.00 0.00 0.00 94 1011.7
20170816122037 70 274 0.0 0.0 0.00 0.00 0.00 98 1011.7
20170816120512 69 268 0.0 0.0 0.00 0.00 0.00 98 1011.7
20170816115009 67 264 0.0 0.0 0.00 0.00 0.00 98 1011.6
20170816113457 64 295 0.0 0.0 0.00 0.00 0.00 98 1011.9
20170816111952 62 294 0.0 0.0 0.00 0.00 0.00 97 1011.4
20170816110451 61 246 0.0 0.0 0.00 0.00 0.00 96 1011.4
20170816104946 60 207 0.0 0.0 0.00 0.01 0.00 95 1011.3
20170816103449 60 207 0.0 0.0 0.00 0.01 0.00 94 1011.2
20170816101947 60 207 0.0 0.0 0.00 0.01 0.00 95 1011.0
20170816100438 60 207 0.0 0.0 0.00 0.01 0.00 94 1010.9
20170816094937 61 207 0.0 0.0 0.00 0.01 0.00 94 1010.8
20170816093431 61 207 0.0 0.0 0.00 0.01 0.00 94 1010.4
20170816091938 61 207 0.0 0.0 0.00 0.01 0.00 94 1010.2
20170816090427 62 207 0.0 0.0 0.00 0.01 0.00 94 1010.3
20170816084926 62 207 0.0 0.0 0.00 0.01 0.00 94 1010.1
20170816083423 62 207 0.0 0.0 0.00 0.01 0.00 94 1009.9
20170816081916 63 207 0.0 0.0 0.00 0.01 0.00 94 1010.2
20170816080415 63 207 0.0 0.0 0.00 0.01 0.00 95 1010.1
20170816074910 63 207 0.0 0.0 0.00 0.01 0.00 95 1010.3
20170816073409 64 207 0.0 0.0 0.00 0.01 0.00 95 1010.2
20170816071908 64 207 0.0 0.0 0.00 0.01 0.00 95 1010.2
20170816070355 64 207 0.0 0.0 0.00 0.01 0.00 95 1010.1
20170816064853 64 207 0.0 0.0 0.00 0.01 0.00 95 1010.2
20170816063352 64 207 0.0 0.0 0.00 0.01 0.00 95 1010.1
20170816061851 64 207 0.0 0.0 0.00 0.01 0.00 95 1009.9
20170816060348 64 207 0.0 0.0 0.00 0.01 0.00 95 1009.7
20170816054844 64 207 0.0 0.0 0.00 0.01 0.00 95 1009.8
20170816053344 64 207 0.0 0.0 0.00 0.01 0.00 95 1009.9
20170816051846 64 207 0.0 0.0 0.00 0.01 0.00 94 1009.9
20170816050346 65 207 0.0 0.0 0.00 0.01 0.00 94 1009.8
20170816044839 65 207 0.0 0.0 0.00 0.01 0.00 95 1009.8
20170816043332 65 207 0.0 0.0 0.00 0.01 0.00 95 1010.0
20170816041833 65 207 0.0 0.0 0.00 0.01 0.00 95 1010.0
20170816040336 65 212 0.0 0.0 0.00 0.01 0.00 94 1010.0
20170816034817 65 217 0.0 0.0 0.00 0.01 0.01 94 1010.1
20170816033316 65 217 0.0 0.0 0.00 0.01 0.01 94 1009.9
20170816032040 66 218 0.0 0.0 0.00 0.01 0.01 94 1010.0
20170816030307 66 217 0.0 0.0 0.00 0.01 0.01 94 1009.9
20170816024804 66 217 0.0 0.0 0.00 0.01 0.01 94 1009.9
20170816023300 66 225 0.0 0.0 0.00 0.01 0.01 94 1010.3
20170816021811 66 217 0.0 0.0 0.00 0.01 0.01 93 1010.2
20170816020259 66 206 0.0 0.0 0.00 0.01 0.01 93 1010.5